Monroe, NC

7:19 PM EDT on April 26, 2018 (GMT -0400)
Monroe

Weather History for KEQY - January, 2013

Change the Weather History Date:

Monday, January 28, 2013

  Actual Average (KCLT) Record (KCLT)
Temperature  
Mean Temperature 42 °F -  
Max Temperature 51 °F 51 °F 79 °F (1944)
Min Temperature 32 °F 30 °F 5 °F (1986)
Degree Days  
Heating Degree Days 24    
Moisture  
Dew Point 37 °F    
Average Humidity 79    
Maximum Humidity 94    
Minimum Humidity 57    
Precipitation  
Precipitation 0.00 in - - ()
Sea Level Pressure  
Sea Level Pressure 30.40 in    
Wind  
Wind Speed 3 mph (SW)    
Max Wind Speed 14 mph    
Max Gust Speed -    
Visibility 7 miles    
Events Rain    
Averages and records for this station are not official NWS values.
T = Trace of Precipitation, MM = Missing Value Source: NWS Daily Summary

Daily Weather History Graph

Daily Weather History Graph

Search for Another Location

Airport or City:

Astronomy

Jan. 28, 2013 Rise Set
Actual Time 7:23 AM EST 5:47 PM EST
Civil Twilight 6:57 AM EST 6:14 PM EST
Nautical Twilight 6:26 AM EST 6:44 PM EST
Astronomical Twilight 5:56 AM EST 7:14 PM EST
Moon 7:34 PM EST (1/28) 7:54 AM EST (1/28)
Length of Visible Light 11h 17m
Length of Day
10h 23m
Full, 98% of the Moon is Illuminated
Jan 28
Full
Feb 3
Last Quarter
Feb 10
New
Feb 17
First Quarter
Feb 25
Full

Hourly Weather History & Observations

Time (EST) Temp. Windchill Dew Point Humidity Pressure Visibility Wind Dir Wind Speed Gust Speed Precip Events Conditions
12:53 AM 37.0 °F - 28.9 °F 73% 30.51 in 8.0 mi Calm Calm - N/A   Clear
1:53 AM 36.0 °F - 28.9 °F 76% 30.51 in 7.0 mi Calm Calm - 0.00 in Rain Light Rain
2:53 AM 35.1 °F - 30.0 °F 82% 30.51 in 7.0 mi Calm Calm - 0.00 in   Overcast
3:53 AM 34.0 °F - 28.9 °F 82% 30.51 in 6.0 mi Calm Calm - N/A   Haze
4:53 AM 32.0 °F - 28.9 °F 88% 30.50 in 5.0 mi Calm Calm - N/A   Clear
5:53 AM 32.0 °F - 28.9 °F 88% 30.50 in 5.0 mi Calm Calm - N/A   Mostly Cloudy
6:06 AM 32.0 °F - 30.2 °F 93% 30.43 in 4.0 mi Calm Calm - N/A   Mostly Cloudy
6:40 AM 33.8 °F - 28.4 °F 81% 30.44 in 6.0 mi Calm Calm - N/A   Haze
6:53 AM 34.0 °F - 30.0 °F 85% 30.51 in 5.0 mi Calm Calm - N/A   Overcast
7:53 AM 35.1 °F - 30.0 °F 82% 30.52 in 5.0 mi Calm Calm - N/A   Haze
8:22 AM 35.6 °F - 30.2 °F 81% 30.44 in 5.0 mi Calm Calm - N/A   Haze
8:53 AM 36.0 °F - 30.9 °F 82% 30.51 in 5.0 mi Calm Calm - N/A   Haze
9:02 AM 37.4 °F - 30.2 °F 75% 30.45 in 6.0 mi Calm Calm - N/A   Haze
9:53 AM 39.9 °F - 30.9 °F 70% 30.50 in 7.0 mi Calm Calm - N/A   Overcast
10:53 AM 44.1 °F - 32.0 °F 63% 30.49 in 9.0 mi Calm Calm - N/A   Overcast
11:53 AM 45.0 °F 43.5 °F 32.0 °F 60% 30.46 in 9.0 mi SW 3.5 mph - N/A   Overcast
12:30 PM 46.4 °F 45.2 °F 32.0 °F 57% 30.38 in 9.0 mi WSW 3.5 mph - N/A   Overcast
12:53 PM 46.0 °F - 32.0 °F 58% 30.42 in 9.0 mi Calm Calm - N/A   Overcast
1:53 PM 46.9 °F - 36.0 °F 66% 30.39 in 10.0 mi WSW 6.9 mph - N/A   Overcast
2:53 PM 48.0 °F - 39.0 °F 71% 30.37 in 10.0 mi SW 8.1 mph - N/A   Overcast
3:25 PM 48.2 °F - 39.2 °F 71% 30.30 in 8.0 mi SW 6.9 mph - N/A   Overcast
3:53 PM 48.9 °F - 39.0 °F 69% 30.34 in 10.0 mi SSW 6.9 mph - N/A   Overcast
4:41 PM 48.2 °F - 41.0 °F 76% 30.28 in 9.0 mi South 6.9 mph - N/A   Overcast
4:53 PM 48.9 °F - 42.1 °F 77% 30.33 in 9.0 mi South 8.1 mph - N/A   Overcast
5:53 PM 48.0 °F - 43.0 °F 83% 30.35 in 7.0 mi SW 5.8 mph - N/A   Overcast
6:36 PM 48.2 °F - 42.8 °F 82% 30.28 in 8.0 mi SSW 9.2 mph - N/A   Overcast
6:53 PM 48.0 °F - 43.0 °F 83% 30.34 in 9.0 mi SW 10.4 mph - N/A   Overcast
7:53 PM 48.9 °F - 44.1 °F 83% 30.33 in 10.0 mi SW 10.4 mph - N/A   Overcast
8:13 PM 50.0 °F - 44.6 °F 82% 30.28 in 9.0 mi SW 8.1 mph - N/A   Overcast
8:53 PM 51.1 °F - 48.0 °F 89% 30.32 in 7.0 mi SW 13.8 mph - N/A   Overcast
9:25 PM 51.8 °F - 48.2 °F 88% 30.27 in 7.0 mi WSW 13.8 mph - N/A   Overcast
9:38 PM 50.0 °F - 48.2 °F 94% 30.27 in 7.0 mi WSW 11.5 mph - N/A   Scattered Clouds
9:53 PM 50.0 °F - 46.9 °F 89% 30.31 in 7.0 mi WSW 11.5 mph - N/A   Clear
10:53 PM 48.0 °F - 46.0 °F 93% 30.30 in 6.0 mi SW 10.4 mph - N/A   Clear
11:53 PM 48.0 °F - 46.0 °F 93% 30.30 in 5.0 mi SW 11.5 mph - N/A   Clear